Home   Weather   Madrid   Past weeks
Flag for Spain

Past Weather in Madrid, Spain — Yesterday and Last 2 Weeks

Now
48 °F

Sunny.


Feels Like: 48 °F
Forecast: 66 / 34 °F
Wind: 2 mph from North

Location: Madrid / Cuatro Vientos

Current Time: Feb 22, 2019 at 10:00:39 am

Latest Report: Feb 22, 2019 at 9:30 am


Visibility: 10 mi

Pressure: 30.48 "Hg (28.15 "Hg at 658m altitude)

Humidity: 50%

Dew Point: 30 °F

Location of MadridLocation

Past Weather in Madrid — Graph

°F

Madrid Temperature Yesterday

Maximum temperature yesterday: 63 °F (at 3:00 pm)
Minimum temperature yesterday: 39 °F (at 7:00 am)
Average temperature yesterday: 54 °F

High & Low Weather Summary for the Past Weeks

 TemperatureHumidityPressure
High63 °F (Feb 13, 6:00 pm)100% (Feb 9, 7:30 am)30.48 "Hg (Feb 9, 7:30 am)
Low34 °F (Feb 8, 8:00 am)21% (Feb 17, 2:30 pm)30.04 "Hg (Feb 18, 3:30 pm)
Average51 °F55%30.27 "Hg
* Reported Feb 7 9:00 am — Feb 22 8:30 am, Madrid. Weather by CustomWeather, © 2019

Note: Actual official high and low records may vary slightly from our data, if they occured in-between our weather recording intervals... More about our weather records

Advertising

Madrid Weather History for the Previous 24 Hours

Scroll right to see more
 ConditionsComfort  
Time TempWeatherWind HumidityBarometerVisibility
8:30 am
Fri, Feb 22
41 °FSunny.2 mph66%30.48 "Hg10 mi
8:00 am39 °FSunny.2 mph70%30.48 "Hg10 mi
7:30 am41 °FClear.No wind66%30.48 "Hg10 mi
8:00 pm
Thu, Feb 21
52 °FClear.No wind44%30.39 "Hg10 mi
7:30 pm55 °FClear.No wind36%30.36 "Hg10 mi
7:00 pm55 °FClear.No wind38%30.36 "Hg10 mi
6:30 pm61 °FPassing clouds.3 mph31%30.36 "HgN/A
6:00 pm63 °FPassing clouds.3 mph30%30.36 "HgN/A
5:30 pm63 °FPassing clouds.7 mph32%30.36 "HgN/A
5:00 pm63 °FPassing clouds.6 mph30%30.36 "HgN/A
4:30 pm63 °FPassing clouds.6 mph27%30.36 "HgN/A
4:00 pm63 °FPassing clouds.6 mph32%30.36 "HgN/A
3:30 pm63 °FPassing clouds.5 mph34%30.36 "HgN/A
3:00 pm63 °FSunny.5 mph37%30.36 "Hg10 mi
2:30 pm61 °FPassing clouds.3 mph42%30.36 "HgN/A
2:00 pm61 °FSunny.3 mph39%30.36 "Hg10 mi
1:30 pm59 °FSunny.5 mph42%30.39 "Hg10 mi
1:00 pm59 °FSunny.2 mph42%30.39 "Hg10 mi
12:30 pm57 °FSunny.2 mph44%30.39 "Hg10 mi
12:00 pm57 °FSunny.2 mph48%30.39 "Hg10 mi
11:30 am54 °FPassing clouds.5 mph54%30.39 "HgN/A
11:00 am52 °FPassing clouds.5 mph58%30.36 "HgN/A
10:30 am50 °FPassing clouds.3 mph62%30.36 "HgN/A
10:00 am48 °FPassing clouds.3 mph62%30.36 "HgN/A
Weather by CustomWeather, © 2019

See weather overview